Regional Weather Roundup
Issued by NWS

Home | Current Version | Previous Version | Text Only | Print | Product List | Glossary On
Versions: 1 2 3 4 5 6 7 8 9 10 11 12 13 14 15 16 17 18 19 20 21 22 23 24 25 26 27 28 29 30 31 32 33 34 35 36 37 38 39 40 41 42 43 44 45 46 47 48 49 50
638
ASUS42 KFFC 010410
RWRGA
WEATHER ROUNDUP FOR GEORGIA
NATIONAL WEATHER SERVICE PEACHTREE CITY GA
1200 AM EDT MON MAY 01 2017

NOTE: "FAIR" INDICATES FEW OR NO CLOUDS BELOW 12,000 FEET WITH NO
SIGNIFICANT WEATHER AND/OR OBSTRUCTIONS TO VISIBILITY.

* = USE WITH CAUTION. THE STATIONS MARKED WITH AN ASTERISK MAY NOT
REPORT WEATHER SUCH AS PRECIPITATION, FOG, OR THUNDER AND ARE NOT
QUALITY CONTROLLED BY NWS.

THE REMARK "TC" DENOTES TEMPERATURE READING IN DEGREES CELSIUS.

GAZ001>058-010500-
NORTH GEORGIA

CITY           SKY/WX    TMP DP  RH WIND       PRES   REMARKS
ATLANTA        CLOUDY    70  63  78 SW9       30.03R
ATHENS         MOCLDY    74  67  78 S6        30.02R
CHAMBLEE       CLOUDY    70  61  73 SW3       30.02S
PEACHTREE CITY CLOUDY    69  64  84 VRB3      30.03S
ROME           LGT RAIN  67  64  90 E7        29.93F FOG
WEST ATLANTA   CLOUDY    69  64  84 SW7       30.03R
GAINESVILLE    CLOUDY    71  65  81 SW3       30.03F
CARTERSVILLE   CLOUDY    66  64  93 SE6       29.98F


CITY           SKY/WX    TMP DP  RH WIND       PRES   REMARKS
DALTON*        DRIZZLE   64  64 100 S8        29.96F
MARIETTA       CLOUDY    68  62  83 S6        30.03R
CANTON*        CLOUDY    64  63  94 E5        30.03S
$$

GAZ059>098-102>109-010500-
CENTRAL GEORGIA

CITY           SKY/WX    TMP DP  RH WIND       PRES   REMARKS
AUGUSTA-BUSH   CLOUDY    76  68  76 S12       30.05S HAZE
AUGUSTA-DANIEL CLOUDY    75  65  70 SE10G21   30.07R
COLUMBUS       MOCLDY    73  64  73 N3        30.02R
MACON          CLOUDY    74  65  73 SE7       30.02S
ROBINS AFB     CLOUDY    74  67  78 SE9       30.02R


CITY           SKY/WX    TMP DP  RH WIND       PRES   REMARKS
LAGRANGE*      CLOUDY    69  69 100 S8        30.01F
SYLVANIA*      PTCLDY   N/A N/A N/A S7        30.09S
MILLEDGEVILLE* CLOUDY    75  70  83 S5        30.03S
$$

GAZ099>101-110>166-010500-
SOUTH GEORGIA

CITY           SKY/WX    TMP DP  RH WIND       PRES   REMARKS
SAVANNAH       CLOUDY    76  68  76 S14       30.10S
VALDOSTA       CLEAR     70  66  87 CALM      30.05F
ALMA           MOCLDY    74  70  87 SE5       30.06F
ST SIMONS      CLOUDY    76  69  79 SE13G23   30.09R
FT STEWART     CLOUDY    74  68  81 SE9       30.06F
ALBANY         CLOUDY    72  67  84 CALM      30.04F
HUNTER AFB     CLOUDY    76  74  96 S3        30.07F
MOODY AFB      PTCLDY    75  65  71 SE3       30.03F
BRUNSWICK      CLOUDY    77  72  83 S12G22    30.10S


CITY           SKY/WX    TMP DP  RH WIND       PRES   REMARKS
BAINBRIDGE*    CLOUDY    73  68  83 CALM      30.03S
MOULTRIE*      CLOUDY    72  68  88 CALM      30.04S
VIDALIA*       MOCLDY    73  68  83 SE8       30.07F
WAYCROSS*      PTCLDY    77  74  92 S3        30.07F
DOUGLAS*       CLOUDY    73  68  83 SE3       30.07S
$$




USA.gov is the U.S. government's official web portal to all federal, state and local government web resources and services.